When you browse on this site, cookies collect data to enhance your experience and personalize the content and advertising you see.
Visit our Privacy Policy to learn more. By continuing to use the site, you agree to this use of cookies and data.
  • In United Kingdom
  • List of Countries
  • For 7 days
  • Water Temperature
  • Satellite Maps
  • Weather Map
  • Weather Widgets
  • user-avatar
    Login

    Hourly Weather Strych

    Today, 21 February, Thursday

    Time Temperature Precipitation Wind Pressure Humidity
    00:00 +2°C° 0 mm 3 mps 752 mmHg 93%
    01:00 +3°C° 0 mm 2 mps 752 mmHg 95%
    02:00 +3°C° 0.2 mm 2 mps 752 mmHg 95%
    03:00 +3°C° 0.2 mm 2 mps 752 mmHg 96%
    04:00 +3°C° 0.2 mm 2 mps 751 mmHg 96%
    05:00 +3°C° 0.5 mm 2 mps 751 mmHg 96%
    06:00 +4°C° 0.5 mm 2 mps 751 mmHg 96%
    07:00 +4°C° 0.5 mm 2 mps 751 mmHg 96%
    08:00 +4°C° 0.9 mm 2 mps 751 mmHg 95%
    09:00 +3°C° 0.9 mm 3 mps 751 mmHg 94%
    10:00 +4°C° 0.9 mm 3 mps 751 mmHg 93%
    11:00 +4°C° 1 mm 3 mps 751 mmHg 93%
    12:00 +4°C° 1 mm 3 mps 751 mmHg 92%
    13:00 +4°C° 1 mm 3 mps 750 mmHg 91%
    14:00 +4°C° 1.1 mm 3 mps 750 mmHg 92%
    15:00 +4°C° 1.1 mm 3 mps 750 mmHg 92%
    16:00 +4°C° 1.1 mm 3 mps 750 mmHg 92%
    17:00 +4°C° 0.8 mm 3 mps 750 mmHg 93%
    18:00 +4°C° 0.8 mm 3 mps 750 mmHg 93%
    19:00 +4°C° 0.8 mm 3 mps 750 mmHg 94%
    20:00 +3°C° 0.4 mm 3 mps 750 mmHg 93%
    21:00 +3°C° 0.4 mm 4 mps 750 mmHg 93%
    22:00 +1°C° 0.4 mm 4 mps 751 mmHg 93%
    23:00 0°C° 0.2 mm 5 mps 752 mmHg 90%

    Tomorrow, 22 February, Friday

    Time Temperature Precipitation Wind Pressure Humidity
    00:00 -1°C° 0.2 mm 5 mps 753 mmHg 88%
    01:00 -4°C° 0.2 mm 6 mps 753 mmHg 86%
    02:00 -4°C° 0 mm 6 mps 754 mmHg 80%
    03:00 -4°C° 0 mm 6 mps 755 mmHg 75%
    04:00 -5°C° 0 mm 5 mps 756 mmHg 70%
    05:00 -5°C° 0 mm 5 mps 758 mmHg 67%
    06:00 -5°C° 0 mm 5 mps 759 mmHg 64%
    07:00 -6°C° 0 mm 5 mps 760 mmHg 62%
    08:00 -5°C° 0 mm 5 mps 761 mmHg 58%
    09:00 -4°C° 0 mm 4 mps 762 mmHg 54%
    10:00 -4°C° 0 mm 4 mps 763 mmHg 51%
    11:00 -3°C° 0 mm 4 mps 764 mmHg 48%
    12:00 -3°C° 0 mm 4 mps 764 mmHg 45%
    13:00 -1°C° 0 mm 3 mps 765 mmHg 42%
    14:00 -2°C° 0 mm 3 mps 765 mmHg 43%
    15:00 -2°C° 0 mm 3 mps 765 mmHg 44%
    16:00 -2°C° 0 mm 3 mps 766 mmHg 46%
    17:00 -4°C° 0 mm 3 mps 766 mmHg 48%
    18:00 -4°C° 0 mm 3 mps 766 mmHg 50%
    19:00 -4°C° 0 mm 2 mps 767 mmHg 52%
    20:00 -4°C° 0 mm 2 mps 767 mmHg 52%
    21:00 -4°C° 0 mm 2 mps 767 mmHg 52%
    22:00 -4°C° 0 mm 2 mps 768 mmHg 52%
    23:00 -4°C° 0 mm 2 mps 768 mmHg 51%

    Day after tomorrow, 23 February, Saturday

    Time Temperature Precipitation Wind Pressure Humidity
    00:00 -2°C° 0 mm 1 mps 768 mmHg 50%
    01:00 -2°C° 0 mm 1 mps 768 mmHg 49%
    02:00 -2°C° 0 mm 1 mps 768 mmHg 48%
    03:00 -2°C° 0 mm 1 mps 768 mmHg 47%
    04:00 -2°C° 0 mm 1 mps 768 mmHg 46%
    05:00 -3°C° 0 mm 0 mps 768 mmHg 46%
    06:00 -3°C° 0 mm 0 mps 768 mmHg 46%
    07:00 -3°C° 0 mm 0 mps 768 mmHg 46%
    08:00 -1°C° 0 mm 1 mps 768 mmHg 42%
    09:00 0°C° 0 mm 1 mps 768 mmHg 39%
    10:00 -2°C° 0 mm 2 mps 768 mmHg 35%
    11:00 -1°C° 0 mm 2 mps 768 mmHg 34%
    12:00 +1°C° 0 mm 2 mps 768 mmHg 32%
    13:00 +1°C° 0 mm 2 mps 768 mmHg 31%
    14:00 +1°C° 0 mm 2 mps 767 mmHg 33%
    15:00 +1°C° 0 mm 2 mps 767 mmHg 35%
    16:00 +1°C° 0 mm 2 mps 767 mmHg 37%
    17:00 -1°C° 0 mm 2 mps 766 mmHg 40%
    18:00 -1°C° 0 mm 2 mps 766 mmHg 43%
    19:00 -2°C° 0 mm 2 mps 766 mmHg 47%
    20:00 -2°C° 0 mm 2 mps 766 mmHg 47%
    21:00 -1°C° 0 mm 3 mps 765 mmHg 47%
    22:00 -1°C° 0 mm 3 mps 765 mmHg 48%
    23:00 -1°C° 0 mm 3 mps 765 mmHg 49%

    24 February, Sunday

    Time Temperature Precipitation Wind Pressure Humidity
    00:00 -1°C° 0 mm 3 mps 765 mmHg 50%
    01:00 -1°C° 0 mm 3 mps 765 mmHg 51%
    02:00 -1°C° 0 mm 3 mps 764 mmHg 53%
    03:00 -1°C° 0 mm 3 mps 764 mmHg 55%
    04:00 -1°C° 0 mm 3 mps 763 mmHg 56%
    05:00 -1°C° 0 mm 3 mps 763 mmHg 59%
    06:00 -1°C° 0 mm 3 mps 763 mmHg 61%
    07:00 -1°C° 0 mm 3 mps 763 mmHg 64%
    08:00 0°C° 0 mm 3 mps 762 mmHg 64%
    09:00 0°C° 0 mm 4 mps 762 mmHg 63%
    10:00 +3°C° 0 mm 4 mps 762 mmHg 63%
    11:00 +3°C° 0 mm 4 mps 762 mmHg 63%
    12:00 +4°C° 0 mm 4 mps 761 mmHg 64%
    13:00 +5°C° 0 mm 4 mps 761 mmHg 64%
    14:00 +5°C° 0 mm 4 mps 761 mmHg 65%
    15:00 +5°C° 0 mm 4 mps 760 mmHg 67%
    16:00 +4°C° 0 mm 4 mps 760 mmHg 68%
    17:00 +4°C° 0 mm 4 mps 760 mmHg 69%
    18:00 +2°C° 0 mm 5 mps 759 mmHg 70%
    19:00 +1°C° 0 mm 5 mps 759 mmHg 71%
    20:00 +1°C° 0 mm 5 mps 759 mmHg 78%
    21:00 +1°C° 0 mm 4 mps 759 mmHg 84%
    22:00 +1°C° 0 mm 4 mps 759 mmHg 91%
    23:00 +1°C° 0 mm 4 mps 760 mmHg 91%

    25 February, Monday

    Time Temperature Precipitation Wind Pressure Humidity
    00:00 +3°C° 0 mm 4 mps 760 mmHg 91%
    01:00 +3°C° 0 mm 4 mps 761 mmHg 91%
    02:00 +1°C° 0 mm 4 mps 761 mmHg 90%
    03:00 +1°C° 0 mm 4 mps 761 mmHg 88%
    04:00 0°C° 0 mm 4 mps 762 mmHg 87%
    05:00 0°C° 0 mm 4 mps 762 mmHg 87%
    06:00 +1°C° 0 mm 3 mps 763 mmHg 87%
    07:00 0°C° 0 mm 3 mps 763 mmHg 87%
    08:00 +1°C° 0 mm 3 mps 763 mmHg 80%
    09:00 +3°C° 0 mm 3 mps 764 mmHg 73%
    10:00 +4°C° 0 mm 4 mps 764 mmHg 66%
    11:00 +5°C° 0 mm 4 mps 764 mmHg 61%
    12:00 +5°C° 0 mm 3 mps 764 mmHg 56%
    13:00 +7°C° 0 mm 3 mps 764 mmHg 52%
    14:00 +7°C° 0 mm 3 mps 764 mmHg 53%
    15:00 +7°C° 0 mm 3 mps 763 mmHg 55%
    16:00 +7°C° 0 mm 2 mps 763 mmHg 57%
    17:00 +5°C° 0 mm 3 mps 763 mmHg 62%
    18:00 +4°C° 0 mm 3 mps 763 mmHg 67%
    19:00 +3°C° 0 mm 3 mps 763 mmHg 71%
    20:00 +3°C° 0 mm 3 mps 762 mmHg 71%
    21:00 +1°C° 0 mm 4 mps 761 mmHg 70%
    22:00 +1°C° 0 mm 4 mps 761 mmHg 69%
    23:00 +1°C° 0 mm 5 mps 760 mmHg 73%

    26 February, Tuesday

    Time Temperature Precipitation Wind Pressure Humidity
    00:00 +2°C° 0 mm 5 mps 759 mmHg 77%
    01:00 +2°C° 0 mm 6 mps 759 mmHg 81%
    02:00 +2°C° 0 mm 6 mps 758 mmHg 80%
    03:00 +2°C° 0 mm 6 mps 758 mmHg 80%
    04:00 +2°C° 0 mm 6 mps 757 mmHg 79%
    05:00 +2°C° 0 mm 6 mps 757 mmHg 78%
    06:00 +3°C° 0 mm 6 mps 756 mmHg 76%
    07:00 +3°C° 0 mm 5 mps 756 mmHg 75%
    08:00 +3°C° 0 mm 5 mps 756 mmHg 74%
    09:00 +3°C° 0 mm 5 mps 755 mmHg 72%
    10:00 +5°C° 0 mm 5 mps 755 mmHg 71%
    11:00 +6°C° 0 mm 5 mps 755 mmHg 68%
    12:00 +7°C° 0 mm 5 mps 754 mmHg 66%
    13:00 +8°C° 0 mm 5 mps 754 mmHg 63%
    14:00 +8°C° 0 mm 5 mps 754 mmHg 66%
    15:00 +7°C° 0 mm 5 mps 754 mmHg 68%
    16:00 +7°C° 0 mm 5 mps 753 mmHg 71%
    17:00 +6°C° 0 mm 5 mps 753 mmHg 76%
    18:00 +5°C° 0 mm 5 mps 753 mmHg 81%
    19:00 +4°C° 0 mm 4 mps 753 mmHg 86%
    20:00 +4°C° 0 mm 4 mps 754 mmHg 89%
    21:00 +3°C° 0 mm 3 mps 754 mmHg 91%
    22:00 +3°C° 0 mm 3 mps 754 mmHg 94%
    23:00 +4°C° 0 mm 2 mps 754 mmHg 92%
    Show more